| time (UTC) | temp C | wind direction | speed KPH | gust KPH | rain 1hr cm | rain 24hr cm | rain mn cm | humidity % | barometer mb |
| 20260905080409 | 13 | 210 | 4.8 | 4.8 | 0.00 | 0.00 | 0.00 | 57 | 1032.0 |
| 20260905075908 | 13 | 201 | 4.8 | 4.8 | 0.00 | 0.00 | 0.00 | 57 | 1031.9 |
| 20260905075403 | 13 | 207 | 4.8 | 6.4 | 0.00 | 0.00 | 0.00 | 56 | 1032.0 |
| 20260905074902 | 13 | 210 | 4.8 | 6.4 | 0.00 | 0.00 | 0.00 | 56 | 1032.1 |
| 20260905074358 | 13 | 206 | 4.8 | 4.8 | 0.00 | 0.00 | 0.00 | 57 | 1032.1 |
| 20260905073854 | 13 | 203 | 4.8 | 4.8 | 0.00 | 0.00 | 0.00 | 56 | 1031.9 |
| 20260905073348 | 13 | 206 | 4.8 | 4.8 | 0.00 | 0.00 | 0.00 | 56 | 1032.0 |
| 20260905072843 | 13 | 205 | 4.8 | 6.4 | 0.00 | 0.00 | 0.00 | 56 | 1032.0 |
| 20260905072338 | 13 | 200 | 4.8 | 6.4 | 0.00 | 0.00 | 0.00 | 56 | 1032.3 |
| 20260905071835 | 13 | 201 | 4.8 | 6.4 | 0.00 | 0.00 | 0.00 | 56 | 1032.0 |
| 20260905071331 | 13 | 207 | 4.8 | 6.4 | 0.00 | 0.00 | 0.00 | 55 | 1031.9 |
| 20260905070825 | 13 | 206 | 4.8 | 4.8 | 0.00 | 0.00 | 0.00 | 57 | 1032.0 |
| 20260905070322 | 13 | 204 | 4.8 | 4.8 | 0.00 | 0.00 | 0.00 | 56 | 1032.0 |
| 20260905065820 | 13 | 205 | 4.8 | 4.8 | 0.00 | 0.00 | 0.00 | 56 | 1032.0 |
| 20260905065319 | 13 | 210 | 4.8 | 4.8 | 0.00 | 0.00 | 0.00 | 55 | 1031.9 |
| 20260905064814 | 13 | 205 | 4.8 | 4.8 | 0.00 | 0.00 | 0.00 | 55 | 1032.0 |
| 20260905064310 | 14 | 206 | 3.2 | 6.4 | 0.00 | 0.00 | 0.00 | 54 | 1032.0 |
| 20260905063808 | 14 | 212 | 4.8 | 4.8 | 0.00 | 0.00 | 0.00 | 53 | 1032.1 |
| 20260905063259 | 14 | 201 | 4.8 | 4.8 | 0.00 | 0.00 | 0.00 | 54 | 1032.0 |
| 20260905062754 | 14 | 205 | 3.2 | 4.8 | 0.00 | 0.00 | 0.00 | 54 | 1031.8 |
| 20260905062249 | 14 | 201 | 3.2 | 6.4 | 0.00 | 0.00 | 0.00 | 53 | 1032.0 |
| 20260905061743 | 15 | 225 | 3.2 | 4.8 | 0.00 | 0.00 | 0.00 | 52 | 1031.8 |
| 20260905061238 | 15 | 222 | 4.8 | 6.4 | 0.00 | 0.00 | 0.00 | 50 | 1031.9 |
| 20260905060732 | 15 | 205 | 4.8 | 6.4 | 0.00 | 0.00 | 0.00 | 50 | 1031.9 |
| 20260905060230 | 15 | 213 | 4.8 | 6.4 | 0.00 | 0.00 | 0.00 | 50 | 1032.0 |
| 20260905055727 | 15 | 210 | 4.8 | 4.8 | 0.00 | 0.00 | 0.00 | 52 | 1031.9 |
| 20260905055223 | 15 | 214 | 3.2 | 4.8 | 0.00 | 0.00 | 0.00 | 51 | 1031.8 |
| 20260905054718 | 15 | 212 | 6.4 | 6.4 | 0.00 | 0.00 | 0.00 | 51 | 1031.9 |
| 20260905054215 | 15 | 211 | 4.8 | 6.4 | 0.00 | 0.00 | 0.00 | 50 | 1031.8 |
| 20260905053713 | 15 | 230 | 4.8 | 4.8 | 0.00 | 0.00 | 0.00 | 51 | 1031.8 |
| 20260905053208 | 15 | 227 | 3.2 | 6.4 | 0.00 | 0.00 | 0.00 | 50 | 1032.0 |
| 20260905052703 | 15 | 232 | 3.2 | 3.2 | 0.00 | 0.00 | 0.00 | 51 | 1031.9 |
| 20260905052158 | 15 | 219 | 3.2 | 4.8 | 0.00 | 0.00 | 0.00 | 53 | 1031.9 |
| 20260905051658 | 15 | 217 | 3.2 | 4.8 | 0.00 | 0.00 | 0.00 | 52 | 1031.9 |
| 20260905051155 | 15 | 238 | 1.6 | 3.2 | 0.00 | 0.00 | 0.00 | 50 | 1031.9 |
| 20260905050651 | 16 | 208 | 3.2 | 6.4 | 0.00 | 0.00 | 0.00 | 49 | 1031.9 |
| 20260905050147 | 15 | 237 | 3.2 | 4.8 | 0.00 | 0.00 | 0.00 | 49 | 1031.8 |
| 20260905045646 | 15 | 224 | 3.2 | 4.8 | 0.00 | 0.00 | 0.00 | 51 | 1031.9 |
| 20260905045143 | 15 | 184 | 4.8 | 4.8 | 0.00 | 0.00 | 0.00 | 51 | 1032.0 |
| 20260905044642 | 15 | 217 | 3.2 | 4.8 | 0.00 | 0.00 | 0.00 | 51 | 1031.9 |
| 20260905044137 | 15 | 212 | 4.8 | 6.4 | 0.00 | 0.00 | 0.00 | 49 | 1031.9 |
| 20260905043636 | 15 | 214 | 3.2 | 4.8 | 0.00 | 0.00 | 0.00 | 51 | 1031.9 |
| 20260905043131 | 15 | 203 | 4.8 | 4.8 | 0.00 | 0.00 | 0.00 | 51 | 1031.8 |
| 20260905042630 | 15 | 214 | 3.2 | 4.8 | 0.00 | 0.00 | 0.00 | 51 | 1031.9 |
| 20260905042125 | 15 | 214 | 4.8 | 4.8 | 0.00 | 0.00 | 0.00 | 51 | 1032.0 |
| 20260905041621 | 16 | 208 | 4.8 | 4.8 | 0.00 | 0.00 | 0.00 | 50 | 1031.9 |
| 20260905041117 | 15 | 208 | 4.8 | 4.8 | 0.00 | 0.00 | 0.00 | 51 | 1032.0 |
| 20260905040616 | 15 | 211 | 4.8 | 4.8 | 0.00 | 0.00 | 0.00 | 52 | 1032.0 |
| 20260905040115 | 15 | 225 | 3.2 | 3.2 | 0.00 | 0.00 | 0.00 | 52 | 1032.3 |
| 20260905035610 | 15 | 234 | 3.2 | 3.2 | 0.00 | 0.00 | 0.00 | 52 | 1032.1 |
| 20260905035107 | 16 | 214 | 4.8 | 4.8 | 0.00 | 0.00 | 0.00 | 52 | 1032.1 |
| 20260905034603 | 16 | 257 | 0.0 | 1.6 | 0.00 | 0.00 | 0.00 | 52 | 1032.1 |
| 20260905034102 | 16 | 237 | 1.6 | 4.8 | 0.00 | 0.00 | 0.00 | 51 | 1032.1 |
| 20260905033556 | 16 | 224 | 3.2 | 4.8 | 0.00 | 0.00 | 0.00 | 51 | 1032.0 |
| 20260905033052 | 16 | 244 | 3.2 | 4.8 | 0.00 | 0.00 | 0.00 | 50 | 1032.0 |
| 20260905032552 | 17 | 270 | 1.6 | 6.4 | 0.00 | 0.00 | 0.00 | 49 | 1032.1 |
| 20260905032047 | 17 | 253 | 4.8 | 4.8 | 0.00 | 0.00 | 0.00 | 49 | 1032.0 |
| 20260905031543 | 17 | 220 | 3.2 | 3.2 | 0.00 | 0.00 | 0.00 | 47 | 1032.3 |
| 20260905031042 | 17 | 259 | 3.2 | 6.4 | 0.00 | 0.00 | 0.00 | 46 | 1032.0 |
| 20260905030538 | 17 | 225 | 4.8 | 4.8 | 0.00 | 0.00 | 0.00 | 46 | 1032.1 |
| 20260905030038 | 17 | 246 | 3.2 | 6.4 | 0.00 | 0.00 | 0.00 | 46 | 1032.3 |
| 20260905025533 | 17 | 236 | 1.6 | 3.2 | 0.00 | 0.00 | 0.00 | 46 | 1032.1 |
| 20260905025029 | 17 | 240 | 1.6 | 3.2 | 0.00 | 0.00 | 0.00 | 46 | 1032.3 |
| 20260905024524 | 17 | 231 | 3.2 | 4.8 | 0.00 | 0.00 | 0.00 | 46 | 1032.0 |
| 20260905024019 | 17 | 242 | 1.6 | 6.4 | 0.00 | 0.00 | 0.00 | 46 | 1031.9 |
| 20260905023514 | 17 | 250 | 1.6 | 3.2 | 0.00 | 0.00 | 0.00 | 45 | 1031.9 |
| 20260905023009 | 17 | 284 | 0.0 | 6.4 | 0.00 | 0.00 | 0.00 | 44 | 1031.6 |
| 20260905022503 | 17 | 256 | 0.0 | 4.8 | 0.00 | 0.00 | 0.00 | 45 | 1031.4 |
| 20260905021959 | 17 | 265 | 3.2 | 3.2 | 0.00 | 0.00 | 0.00 | 44 | 1031.5 |
| 20260905021458 | 17 | 256 | 1.6 | 1.6 | 0.00 | 0.00 | 0.00 | 45 | 1031.6 |
| 20260905020953 | 17 | 256 | 0.0 | 0.0 | 0.00 | 0.00 | 0.00 | 47 | 1031.5 |
| 20260905020453 | 17 | 252 | 0.0 | 1.6 | 0.00 | 0.00 | 0.00 | 48 | 1031.1 |
| 20260905015948 | 16 | 287 | 1.6 | 1.6 | 0.00 | 0.00 | 0.00 | 46 | 1031.6 |
| 20260905015446 | 16 | 240 | 1.6 | 1.6 | 0.00 | 0.00 | 0.00 | 47 | 1031.6 |
| 20260905014945 | 16 | 230 | 3.2 | 3.2 | 0.00 | 0.00 | 0.00 | 48 | 1031.5 |
| 20260905014441 | 16 | 240 | 1.6 | 3.2 | 0.00 | 0.00 | 0.00 | 47 | 1031.4 |
| 20260905013936 | 16 | 238 | 1.6 | 4.8 | 0.00 | 0.00 | 0.00 | 49 | 1031.2 |
| 20260905013433 | 16 | 233 | 1.6 | 3.2 | 0.00 | 0.00 | 0.00 | 47 | 1031.1 |
| 20260905012932 | 16 | 241 | 1.6 | 3.2 | 0.00 | 0.00 | 0.00 | 48 | 1031.4 |
| 20260905012428 | 16 | 220 | 3.2 | 4.8 | 0.00 | 0.00 | 0.00 | 47 | 1031.1 |
| 20260905011925 | 17 | 230 | 3.2 | 3.2 | 0.00 | 0.00 | 0.00 | 47 | 1031.2 |
| 20260905011420 | 17 | 232 | 3.2 | 3.2 | 0.00 | 0.00 | 0.00 | 46 | 1031.4 |
| 20260905010915 | 17 | 240 | 1.6 | 3.2 | 0.00 | 0.00 | 0.00 | 44 | 1031.4 |
| 20260905010411 | 17 | 250 | 0.0 | 1.6 | 0.00 | 0.00 | 0.00 | 43 | 1031.4 |
| 20260905005906 | 17 | 224 | 3.2 | 3.2 | 0.00 | 0.00 | 0.00 | 43 | 1031.4 |
| 20260905005402 | 17 | 242 | 1.6 | 1.6 | 0.00 | 0.00 | 0.00 | 44 | 1031.2 |
| 20260905004857 | 17 | 233 | 1.6 | 3.2 | 0.00 | 0.00 | 0.00 | 42 | 1031.5 |
| 20260905004352 | 18 | 216 | 3.2 | 4.8 | 0.00 | 0.00 | 0.00 | 41 | 1031.4 |
| 20260905003847 | 18 | 229 | 3.2 | 3.2 | 0.00 | 0.00 | 0.00 | 41 | 1031.4 |
| 20260905003343 | 18 | 240 | 1.6 | 1.6 | 0.00 | 0.00 | 0.00 | 41 | 1031.4 |
| 20260905002838 | 20 | 221 | 3.2 | 3.2 | 0.00 | 0.00 | 0.00 | 39 | 1031.4 |
| 20260905002337 | 20 | 249 | 0.0 | 1.6 | 0.00 | 0.00 | 0.00 | 37 | 1031.2 |
| 20260905001832 | 20 | 280 | 1.6 | 3.2 | 0.00 | 0.00 | 0.00 | 34 | 1031.2 |
| 20260905001327 | 21 | 269 | 1.6 | 3.2 | 0.00 | 0.00 | 0.00 | 34 | 1031.4 |
| 20260905000823 | 21 | 252 | 0.0 | 0.0 | 0.00 | 0.00 | 0.00 | 37 | 1031.5 |
| 20260905000318 | 21 | 270 | 1.6 | 3.2 | 0.00 | 0.00 | 0.00 | 34 | 1031.2 |
| 20260904235812 | 21 | 253 | 0.0 | 1.6 | 0.00 | 0.00 | 0.00 | 34 | 1031.1 |
| 20260904235306 | 20 | 231 | 1.6 | 1.6 | 0.00 | 0.00 | 0.00 | 35 | 1031.2 |
| 20260904234756 | 21 | 249 | 0.0 | 3.2 | 0.00 | 0.00 | 0.00 | 34 | 1031.2 |
| 20260904234246 | 21 | 276 | 0.0 | 1.6 | 0.00 | 0.00 | 0.00 | 34 | 1031.2 |
| 20260904233742 | 21 | 257 | 1.6 | 1.6 | 0.00 | 0.00 | 0.00 | 34 | 1031.2 |
| 20260904233237 | 21 | 278 | 1.6 | 6.4 | 0.00 | 0.00 | 0.00 | 34 | 1030.8 |
| 20260904232734 | 21 | 274 | 0.0 | 4.8 | 0.00 | 0.00 | 0.00 | 33 | 1031.0 |
| 20260904232229 | 21 | 266 | 0.0 | 3.2 | 0.00 | 0.00 | 0.00 | 33 | 1031.0 |
| 20260904231725 | 21 | 335 | 3.2 | 9.7 | 0.00 | 0.00 | 0.00 | 32 | 1031.0 |
| 20260904231220 | 21 | 271 | 1.6 | 1.6 | 0.00 | 0.00 | 0.00 | 34 | 1031.0 |
| 20260904230715 | 21 | 273 | 3.2 | 3.2 | 0.00 | 0.00 | 0.00 | 33 | 1031.0 |
| 20260904230209 | 21 | 358 | 4.8 | 4.8 | 0.00 | 0.00 | 0.00 | 33 | 1031.1 |
| 20260904225709 | 21 | 288 | 1.6 | 4.8 | 0.00 | 0.00 | 0.00 | 32 | 1031.1 |
| 20260904225203 | 21 | 270 | 0.0 | 1.6 | 0.00 | 0.00 | 0.00 | 33 | 1031.0 |
| 20260904224702 | 21 | 319 | 0.0 | 3.2 | 0.00 | 0.00 | 0.00 | 34 | 1031.1 |
| 20260904224157 | 21 | 263 | 0.0 | 3.2 | 0.00 | 0.00 | 0.00 | 32 | 1031.2 |
| 20260904223656 | 21 | 270 | 0.0 | 4.8 | 0.00 | 0.00 | 0.00 | 32 | 1031.0 |
| 20260904223151 | 21 | 262 | 3.2 | 14.5 | 0.00 | 0.00 | 0.00 | 32 | 1030.8 |
| 20260904222647 | 23 | 32 | 9.7 | 12.9 | 0.00 | 0.00 | 0.00 | 30 | 1031.0 |
| 20260904222143 | 22 | 253 | 4.8 | 9.7 | 0.00 | 0.00 | 0.00 | 31 | 1030.8 |
| 20260904221642 | 22 | 257 | 0.0 | 3.2 | 0.00 | 0.00 | 0.00 | 32 | 1031.1 |
| 20260904221137 | 22 | 346 | 3.2 | 9.7 | 0.00 | 0.00 | 0.00 | 33 | 1031.0 |
| 20260904220632 | 22 | 273 | 0.0 | 4.8 | 0.00 | 0.00 | 0.00 | 33 | 1031.1 |
| 20260904220127 | 22 | 121 | 8.0 | 9.7 | 0.00 | 0.00 | 0.00 | 31 | 1030.8 |
| 20260904215627 | 22 | 259 | 4.8 | 4.8 | 0.00 | 0.00 | 0.00 | 31 | 1030.8 |
| 20260904215123 | 22 | 300 | 1.6 | 4.8 | 0.00 | 0.00 | 0.00 | 32 | 1031.0 |
| 20260904214623 | 22 | 298 | 3.2 | 9.7 | 0.00 | 0.00 | 0.00 | 30 | 1030.7 |
| 20260904214120 | 22 | 262 | 3.2 | 9.7 | 0.00 | 0.00 | 0.00 | 30 | 1030.8 |
| 20260904213617 | 22 | 222 | 0.0 | 9.7 | 0.00 | 0.00 | 0.00 | 31 | 1031.0 |
| 20260904213114 | 21 | 241 | 1.6 | 12.9 | 0.00 | 0.00 | 0.00 | 33 | 1030.8 |
| 20260904212613 | 21 | 325 | 3.2 | 9.7 | 0.00 | 0.00 | 0.00 | 32 | 1031.1 |
| 20260904212108 | 22 | 193 | 4.8 | 11.3 | 0.00 | 0.00 | 0.00 | 31 | 1031.2 |
| 20260904211608 | 22 | 36 | 6.4 | 9.7 | 0.00 | 0.00 | 0.00 | 31 | 1031.2 |
| 20260904211104 | 23 | 16 | 4.8 | 6.4 | 0.00 | 0.00 | 0.00 | 29 | 1030.8 |
| 20260904210603 | 24 | 275 | 1.6 | 20.9 | 0.00 | 0.00 | 0.00 | 29 | 1031.0 |
| 20260904210059 | 23 | 20 | 11.3 | 17.7 | 0.00 | 0.00 | 0.00 | 30 | 1031.0 |
| 20260904205554 | 23 | 320 | 4.8 | 12.9 | 0.00 | 0.00 | 0.00 | 31 | 1031.1 |
| 20260904205050 | 23 | 336 | 9.7 | 12.9 | 0.00 | 0.00 | 0.00 | 31 | 1031.4 |
| 20260904204546 | 23 | 17 | 3.2 | 6.4 | 0.00 | 0.00 | 0.00 | 30 | 1031.0 |
| 20260904204042 | 25 | 325 | 6.4 | 9.7 | 0.00 | 0.00 | 0.00 | 29 | 1031.2 |
| 20260904203538 | 22 | 19 | 0.0 | 9.7 | 0.00 | 0.00 | 0.00 | 31 | 1031.1 |
| 20260904203034 | 23 | 107 | 6.4 | 11.3 | 0.00 | 0.00 | 0.00 | 29 | 1031.2 |
| 20260904202530 | 23 | 338 | 9.7 | 20.9 | 0.00 | 0.00 | 0.00 | 30 | 1031.4 |
| 20260904202026 | 22 | 332 | 4.8 | 12.9 | 0.00 | 0.00 | 0.00 | 29 | 1031.4 |
| 20260904201521 | 23 | 357 | 4.8 | 12.9 | 0.00 | 0.00 | 0.00 | 29 | 1031.5 |
| 20260904201016 | 23 | 329 | 1.6 | 6.4 | 0.00 | 0.00 | 0.00 | 29 | 1031.6 |
| 20260904200514 | 22 | 196 | 3.2 | 4.8 | 0.00 | 0.00 | 0.00 | 30 | 1031.5 |
| 20260904200010 | 21 | 24 | 3.2 | 9.7 | 0.00 | 0.00 | 0.00 | 32 | 1031.6 |
| 20260904195508 | 21 | 7 | 4.8 | 12.9 | 0.00 | 0.00 | 0.00 | 31 | 1031.6 |
| 20260904195008 | 23 | 316 | 6.4 | 12.9 | 0.00 | 0.00 | 0.00 | 29 | 1031.5 |
| 20260904194503 | 23 | 337 | 3.2 | 11.3 | 0.00 | 0.00 | 0.00 | 30 | 1031.9 |
| 20260904193958 | 22 | 297 | 1.6 | 3.2 | 0.00 | 0.00 | 0.00 | 30 | 1031.8 |
| 20260904193453 | 21 | 247 | 1.6 | 9.7 | 0.00 | 0.00 | 0.00 | 32 | 1031.8 |
| 20260904192949 | 21 | 78 | 4.8 | 6.4 | 0.00 | 0.00 | 0.00 | 31 | 1031.5 |
| 20260904192449 | 21 | 21 | 6.4 | 11.3 | 0.00 | 0.00 | 0.00 | 31 | 1031.6 |
| 20260904191945 | 21 | 20 | 3.2 | 9.7 | 0.00 | 0.00 | 0.00 | 31 | 1031.6 |
| 20260904191441 | 21 | 295 | 1.6 | 9.7 | 0.00 | 0.00 | 0.00 | 32 | 1031.8 |
| 20260904190938 | 21 | 330 | 3.2 | 22.5 | 0.00 | 0.00 | 0.00 | 31 | 1031.6 |
| 20260904190432 | 22 | 311 | 4.8 | 6.4 | 0.00 | 0.00 | 0.00 | 30 | 1031.8 |
| 20260904185929 | 21 | 269 | 6.4 | 9.7 | 0.00 | 0.00 | 0.00 | 30 | 1031.8 |
| 20260904185424 | 22 | 72 | 8.0 | 12.9 | 0.00 | 0.00 | 0.00 | 29 | 1031.9 |
| 20260904184919 | 22 | 295 | 6.4 | 11.3 | 0.00 | 0.00 | 0.00 | 31 | 1031.9 |
| 20260904184413 | 22 | 292 | 4.8 | 12.9 | 0.00 | 0.00 | 0.00 | 30 | 1031.5 |
| 20260904183908 | 22 | 205 | 4.8 | 16.1 | 0.00 | 0.00 | 0.00 | 32 | 1031.9 |
| 20260904183403 | 22 | 286 | 3.2 | 4.8 | 0.00 | 0.00 | 0.00 | 30 | 1032.0 |
| 20260904182859 | 21 | 303 | 6.4 | 14.5 | 0.00 | 0.00 | 0.00 | 31 | 1031.9 |
| 20260904182354 | 21 | 30 | 6.4 | 11.3 | 0.00 | 0.00 | 0.00 | 31 | 1031.8 |
| 20260904181849 | 22 | 318 | 11.3 | 12.9 | 0.00 | 0.00 | 0.00 | 30 | 1031.8 |
| 20260904181344 | 22 | 19 | 3.2 | 4.8 | 0.00 | 0.00 | 0.00 | 30 | 1031.9 |
| 20260904180839 | 21 | 131 | 11.3 | 14.5 | 0.00 | 0.00 | 0.00 | 30 | 1031.8 |
| 20260904180329 | 21 | 330 | 4.8 | 11.3 | 0.00 | 0.00 | 0.00 | 30 | 1032.0 |
| 20260904175828 | 22 | 339 | 3.2 | 6.4 | 0.00 | 0.00 | 0.00 | 29 | 1031.9 |
| 20260904175326 | 21 | 254 | 3.2 | 11.3 | 0.00 | 0.00 | 0.00 | 30 | 1032.1 |
| 20260904174821 | 21 | 30 | 4.8 | 12.9 | 0.00 | 0.00 | 0.00 | 30 | 1032.0 |
| 20260904174317 | 21 | 331 | 1.6 | 4.8 | 0.00 | 0.00 | 0.00 | 31 | 1032.0 |
| 20260904173812 | 21 | 242 | 0.0 | 9.7 | 0.00 | 0.00 | 0.00 | 29 | 1032.1 |
| 20260904173308 | 21 | 240 | 0.0 | 3.2 | 0.00 | 0.00 | 0.00 | 29 | 1032.1 |
| 20260904172804 | 21 | 298 | 1.6 | 6.4 | 0.00 | 0.00 | 0.00 | 32 | 1032.3 |
| 20260904172305 | 21 | 297 | 4.8 | 6.4 | 0.00 | 0.00 | 0.00 | 32 | 1032.1 |
| 20260904171753 | 21 | 241 | 1.6 | 4.8 | 0.00 | 0.00 | 0.00 | 30 | 1032.4 |
| 20260904171248 | 21 | 316 | 3.2 | 4.8 | 0.00 | 0.00 | 0.00 | 31 | 1032.0 |
| 20260904170744 | 21 | 40 | 3.2 | 6.4 | 0.00 | 0.00 | 0.00 | 31 | 1032.3 |
| 20260904170240 | 21 | 274 | 4.8 | 6.4 | 0.00 | 0.00 | 0.00 | 29 | 1032.0 |
| 20260904165738 | 21 | 264 | 1.6 | 4.8 | 0.00 | 0.00 | 0.00 | 29 | 1032.4 |
| 20260904165232 | 20 | 140 | 4.8 | 6.4 | 0.00 | 0.00 | 0.00 | 30 | 1032.3 |
| 20260904164727 | 20 | 0 | 8.0 | 9.7 | 0.00 | 0.00 | 0.00 | 31 | 1032.0 |
| 20260904164222 | 20 | 331 | 6.4 | 14.5 | 0.00 | 0.00 | 0.00 | 32 | 1032.1 |
| 20260904163718 | 20 | 8 | 4.8 | 6.4 | 0.00 | 0.00 | 0.00 | 31 | 1032.1 |
| 20260904163214 | 20 | 260 | 4.8 | 11.3 | 0.00 | 0.00 | 0.00 | 31 | 1032.3 |
| 20260904162712 | 20 | 151 | 4.8 | 4.8 | 0.00 | 0.00 | 0.00 | 32 | 1032.3 |
| 20260904162207 | 20 | 162 | 4.8 | 9.7 | 0.00 | 0.00 | 0.00 | 34 | 1032.0 |
| 20260904161703 | 20 | 98 | 3.2 | 11.3 | 0.00 | 0.00 | 0.00 | 34 | 1031.9 |
| 20260904161158 | 21 | 336 | 4.8 | 6.4 | 0.00 | 0.00 | 0.00 | 33 | 1031.9 |
| 20260904160654 | 20 | 238 | 1.6 | 6.4 | 0.00 | 0.00 | 0.00 | 34 | 1032.1 |
| 20260904160149 | 20 | 269 | 0.0 | 11.3 | 0.00 | 0.00 | 0.00 | 34 | 1031.9 |
| 20260904155644 | 19 | 117 | 8.0 | 9.7 | 0.00 | 0.00 | 0.00 | 34 | 1031.9 |
| 20260904155143 | 20 | 28 | 1.6 | 9.7 | 0.00 | 0.00 | 0.00 | 35 | 1031.8 |
| 20260904154641 | 20 | 191 | 3.2 | 6.4 | 0.00 | 0.00 | 0.00 | 34 | 1031.9 |
| 20260904154136 | 20 | 278 | 1.6 | 4.8 | 0.00 | 0.00 | 0.00 | 35 | 1031.9 |
| 20260904153632 | 19 | 131 | 4.8 | 9.7 | 0.00 | 0.00 | 0.00 | 33 | 1031.8 |
| 20260904153127 | 21 | 258 | 6.4 | 6.4 | 0.00 | 0.00 | 0.00 | 35 | 1031.5 |
| 20260904152623 | 20 | 224 | 1.6 | 3.2 | 0.00 | 0.00 | 0.00 | 33 | 1031.6 |
| 20260904152118 | 19 | 329 | 6.4 | 9.7 | 0.00 | 0.00 | 0.00 | 37 | 1031.6 |
| 20260904151613 | 20 | 247 | 3.2 | 4.8 | 0.00 | 0.00 | 0.00 | 35 | 1031.4 |
| 20260904151112 | 19 | 226 | 3.2 | 3.2 | 0.00 | 0.00 | 0.00 | 35 | 1031.5 |
| 20260904150608 | 20 | 272 | 1.6 | 3.2 | 0.00 | 0.00 | 0.00 | 31 | 1031.5 |
| 20260904145602 | 19 | 259 | 1.6 | 1.6 | 0.00 | 0.00 | 0.00 | 32 | 1031.5 |
| 20260904145056 | 19 | 313 | 4.8 | 4.8 | 0.00 | 0.00 | 0.00 | 33 | 1031.5 |
| 20260904144552 | 18 | 253 | 0.0 | 1.6 | 0.00 | 0.00 | 0.00 | 34 | 1031.8 |
| 20260904144048 | 19 | 247 | 1.6 | 3.2 | 0.00 | 0.00 | 0.00 | 36 | 1031.4 |
| 20260904143544 | 18 | 258 | 0.0 | 1.6 | 0.00 | 0.00 | 0.00 | 34 | 1031.2 |
| 20260904143041 | 17 | 272 | 1.6 | 6.4 | 0.00 | 0.00 | 0.00 | 38 | 1031.2 |
| 20260904142536 | 17 | 242 | 1.6 | 4.8 | 0.00 | 0.00 | 0.00 | 38 | 1031.4 |
| 20260904142032 | 17 | 240 | 1.6 | 1.6 | 0.00 | 0.00 | 0.00 | 44 | 1031.5 |
| 20260904141532 | 16 | 252 | 0.0 | 0.0 | 0.00 | 0.00 | 0.00 | 46 | 1031.6 |
| 20260904141027 | 15 | 241 | 0.0 | 0.0 | 0.00 | 0.00 | 0.00 | 46 | 1031.4 |
| 20260904140527 | 15 | 234 | 0.0 | 0.0 | 0.00 | 0.00 | 0.00 | 43 | 1031.2 |
| 20260904140022 | 15 | 214 | 0.0 | 0.0 | 0.00 | 0.00 | 0.00 | 47 | 1031.2 |
| 20260904135521 | 15 | 211 | 0.0 | 0.0 | 0.00 | 0.00 | 0.00 | 48 | 1031.0 |
| 20260904135017 | 14 | 250 | 0.0 | 0.0 | 0.00 | 0.00 | 0.00 | 48 | 1031.2 |
| 20260904134512 | 13 | 244 | 1.6 | 1.6 | 0.00 | 0.00 | 0.00 | 50 | 1031.1 |
| 20260904134007 | 13 | 236 | 1.6 | 3.2 | 0.00 | 0.00 | 0.00 | 48 | 1031.1 |
| 20260904133501 | 13 | 225 | 3.2 | 4.8 | 0.00 | 0.00 | 0.00 | 50 | 1030.8 |
| 20260904132957 | 13 | 222 | 3.2 | 3.2 | 0.00 | 0.00 | 0.00 | 49 | 1031.0 |
| 20260904132457 | 12 | 223 | 3.2 | 3.2 | 0.00 | 0.00 | 0.00 | 47 | 1030.7 |
| 20260904131952 | 12 | 209 | 4.8 | 4.8 | 0.00 | 0.00 | 0.00 | 48 | 1030.7 |
| 20260904131447 | 12 | 212 | 3.2 | 4.8 | 0.00 | 0.00 | 0.00 | 47 | 1030.8 |
| 20260904130943 | 12 | 236 | 1.6 | 4.8 | 0.00 | 0.00 | 0.00 | 47 | 1030.7 |
| 20260904130442 | 12 | 210 | 3.2 | 4.8 | 0.00 | 0.00 | 0.00 | 46 | 1030.4 |
| 20260904125936 | 12 | 209 | 3.2 | 4.8 | 0.00 | 0.00 | 0.00 | 44 | 1030.2 |
| 20260904125433 | 12 | 207 | 4.8 | 6.4 | 0.00 | 0.00 | 0.00 | 44 | 1030.6 |
| 20260904124927 | 11 | 212 | 3.2 | 4.8 | 0.00 | 0.00 | 0.00 | 45 | 1029.9 |
| 20260904124423 | 11 | 209 | 4.8 | 4.8 | 0.00 | 0.00 | 0.00 | 46 | 1030.2 |
| 20260904123918 | 11 | 203 | 4.8 | 4.8 | 0.00 | 0.00 | 0.00 | 46 | 1030.2 |
| 20260904123413 | 11 | 200 | 4.8 | 6.4 | 0.00 | 0.00 | 0.00 | 47 | 1030.3 |
| 20260904122908 | 11 | 189 | 6.4 | 6.4 | 0.00 | 0.00 | 0.00 | 45 | 1030.0 |
| 20260904122407 | 11 | 196 | 4.8 | 4.8 | 0.00 | 0.00 | 0.00 | 49 | 1029.9 |
| 20260904121902 | 11 | 198 | 4.8 | 4.8 | 0.00 | 0.00 | 0.00 | 47 | 1029.9 |
| 20260904121359 | 12 | 234 | 1.6 | 4.8 | 0.00 | 0.00 | 0.00 | 44 | 1029.9 |
| 20260904120855 | 12 | 207 | 4.8 | 4.8 | 0.00 | 0.00 | 0.00 | 42 | 1029.9 |
| 20260904120351 | 13 | 227 | 3.2 | 4.8 | 0.00 | 0.00 | 0.00 | 40 | 1029.6 |
| 20260904115846 | 14 | 282 | 1.6 | 6.4 | 0.00 | 0.00 | 0.00 | 39 | 1030.0 |
| 20260904115341 | 14 | 244 | 1.6 | 6.4 | 0.00 | 0.00 | 0.00 | 39 | 1029.8 |
| 20260904114841 | 14 | 214 | 3.2 | 9.7 | 0.00 | 0.00 | 0.00 | 38 | 1029.8 |
| 20260904114335 | 13 | 188 | 6.4 | 9.7 | 0.00 | 0.00 | 0.00 | 38 | 1029.8 |
| 20260904113831 | 14 | 224 | 4.8 | 6.4 | 0.00 | 0.00 | 0.00 | 38 | 1029.8 |
| 20260904113330 | 13 | 206 | 9.7 | 12.9 | 0.00 | 0.00 | 0.00 | 38 | 1029.9 |
| 20260904112825 | 13 | 202 | 3.2 | 9.7 | 0.00 | 0.00 | 0.00 | 43 | 1029.6 |
| 20260904112320 | 11 | 207 | 3.2 | 9.7 | 0.00 | 0.00 | 0.00 | 41 | 1029.9 |
| 20260904111816 | 11 | 239 | 4.8 | 4.8 | 0.00 | 0.00 | 0.00 | 45 | 1029.8 |
| 20260904111312 | 11 | 200 | 4.8 | 4.8 | 0.00 | 0.00 | 0.00 | 47 | 1029.5 |
| 20260904110808 | 11 | 209 | 3.2 | 4.8 | 0.00 | 0.00 | 0.00 | 48 | 1029.5 |
| 20260904110307 | 11 | 250 | 0.0 | 3.2 | 0.00 | 0.00 | 0.00 | 47 | 1029.9 |
| 20260904105802 | 11 | 211 | 6.4 | 6.4 | 0.00 | 0.00 | 0.00 | 46 | 1029.6 |
| 20260904105305 | 11 | 205 | 4.8 | 4.8 | 0.00 | 0.00 | 0.00 | 49 | 1029.5 |
| 20260904104757 | 11 | 195 | 4.8 | 4.8 | 0.00 | 0.00 | 0.00 | 48 | 1029.3 |
| 20260904104253 | 11 | 198 | 4.8 | 6.4 | 0.00 | 0.00 | 0.00 | 47 | 1029.5 |
| 20260904103749 | 11 | 214 | 4.8 | 4.8 | 0.00 | 0.00 | 0.00 | 48 | 1029.5 |
| 20260904103243 | 11 | 209 | 4.8 | 4.8 | 0.00 | 0.00 | 0.00 | 49 | 1029.5 |
| 20260904102739 | 11 | 205 | 4.8 | 4.8 | 0.00 | 0.00 | 0.00 | 49 | 1029.4 |
| 20260904102234 | 11 | 209 | 4.8 | 4.8 | 0.00 | 0.00 | 0.00 | 49 | 1029.3 |
| 20260904101731 | 11 | 206 | 3.2 | 4.8 | 0.00 | 0.00 | 0.00 | 49 | 1029.1 |
| 20260904101226 | 11 | 204 | 4.8 | 4.8 | 0.00 | 0.00 | 0.00 | 50 | 1029.1 |
| 20260904100722 | 11 | 207 | 4.8 | 4.8 | 0.00 | 0.00 | 0.00 | 49 | 1029.1 |
| 20260904100218 | 11 | 199 | 6.4 | 6.4 | 0.00 | 0.00 | 0.00 | 49 | 1029.3 |
| 20260904095717 | 11 | 206 | 4.8 | 6.4 | 0.00 | 0.00 | 0.00 | 47 | 1029.1 |
| 20260904095212 | 11 | 198 | 6.4 | 6.4 | 0.00 | 0.00 | 0.00 | 47 | 1029.3 |
| 20260904094707 | 11 | 198 | 6.4 | 6.4 | 0.00 | 0.00 | 0.00 | 47 | 1029.3 |
| 20260904094202 | 12 | 200 | 4.8 | 4.8 | 0.00 | 0.00 | 0.00 | 44 | 1029.3 |
| 20260904093659 | 12 | 214 | 4.8 | 9.7 | 0.00 | 0.00 | 0.00 | 43 | 1029.3 |
| 20260904093158 | 12 | 219 | 3.2 | 4.8 | 0.00 | 0.00 | 0.00 | 45 | 1029.3 |
| 20260904092654 | 13 | 240 | 1.6 | 4.8 | 0.00 | 0.00 | 0.00 | 44 | 1029.1 |
| 20260904092150 | 14 | 224 | 3.2 | 3.2 | 0.00 | 0.00 | 0.00 | 41 | 1029.1 |
| 20260904091646 | 15 | 222 | 6.4 | 6.4 | 0.00 | 0.00 | 0.00 | 39 | 1029.1 |
| 20260904091146 | 15 | 214 | 6.4 | 9.7 | 0.00 | 0.00 | 0.00 | 38 | 1029.1 |
| 20260904090641 | 15 | 255 | 6.4 | 9.7 | 0.00 | 0.00 | 0.00 | 39 | 1029.3 |
| 20260904090137 | 15 | 225 | 4.8 | 6.4 | 0.00 | 0.00 | 0.00 | 40 | 1029.1 |
| 20260904085637 | 14 | 215 | 3.2 | 9.7 | 0.00 | 0.00 | 0.00 | 41 | 1029.3 |
| 20260904085132 | 13 | 212 | 6.4 | 9.7 | 0.00 | 0.00 | 0.00 | 42 | 1029.4 |
| 20260904084627 | 13 | 225 | 3.2 | 6.4 | 0.00 | 0.00 | 0.00 | 43 | 1029.3 |
| 20260904084124 | 13 | 189 | 3.2 | 6.4 | 0.00 | 0.00 | 0.00 | 43 | 1029.0 |
| 20260904083620 | 13 | 252 | 3.2 | 6.4 | 0.00 | 0.00 | 0.00 | 44 | 1029.3 |
| 20260904083115 | 12 | 226 | 1.6 | 4.8 | 0.00 | 0.00 | 0.00 | 47 | 1029.1 |
| 20260904082610 | 12 | 222 | 3.2 | 3.2 | 0.00 | 0.00 | 0.00 | 53 | 1029.1 |
| 20260904082106 | 11 | 227 | 4.8 | 4.8 | 0.00 | 0.00 | 0.00 | 55 | 1029.0 |
| 20260904081601 | 11 | 242 | 1.6 | 4.8 | 0.00 | 0.00 | 0.00 | 57 | 1029.0 |
| 20260904081055 | 11 | 201 | 4.8 | 4.8 | 0.00 | 0.00 | 0.00 | 54 | 1029.1 |